Location: Thouarc�
(47.2667°N, 0.5000°W)
Time: 17:33:25
(UTC+02:00)

BlueWalker 3 - Visible Passes

Search period start: 19 April 2024 00:00
Search period end: 29 April 2024 00:00
Orbit: 485 x 495 km, 53.2° (Epoch: 19 April)

Date Brightness Start Highest point End Pass type
(mag) Time Alt. Az. Time Alt. Az. Time Alt. Az.
19 Apr 3.4 00:12:01 10° W 00:15:07 36° NW 00:15:07 36° NW visible
19 Apr 1.8 22:08:47 10° SW 22:12:34 68° SSE 22:16:23 10° ENE visible
19 Apr 3.2 23:47:23 10° W 23:51:00 39° NNW 23:52:17 29° NNE visible
20 Apr 4.8 01:26:20 10° WNW 01:26:45 12° WNW 01:26:45 12° WNW visible
20 Apr 1.9 21:44:10 10° SW 21:47:56 66° SSE 21:51:45 10° ENE visible
20 Apr 3.2 23:22:44 10° W 23:26:22 40° NNW 23:29:02 16° NE visible
21 Apr 4.2 01:01:41 10° WNW 01:03:28 22° NW 01:03:28 22° NW visible
21 Apr 3.2 22:58:04 10° W 23:01:42 41° NNW 23:05:21 10° ENE visible
22 Apr 3.7 00:37:02 10° WNW 00:39:56 32° NNW 00:39:56 32° NNW visible
22 Apr 3.1 22:33:22 10° W 22:37:01 41° NNW 22:40:41 10° ENE visible
23 Apr 3.4 00:12:21 10° WNW 00:15:52 33° N 00:16:14 33° NNE visible
23 Apr 3.1 22:08:39 10° W 22:12:18 42° NNW 22:15:59 10° ENE visible
23 Apr 3.5 23:47:38 10° WNW 23:51:09 33° N 23:52:25 26° NE visible
24 Apr 4.5 01:26:00 10° WNW 01:26:50 16° WNW 01:26:50 16° WNW visible
24 Apr 3.1 21:43:55 10° W 21:47:35 43° NNW 21:51:15 10° ENE visible
24 Apr 3.5 23:22:54 10° WNW 23:26:24 33° N 23:28:31 19° ENE visible
25 Apr 4.0 01:01:16 10° WNW 01:02:56 24° NW 01:02:56 24° NW visible
25 Apr 3.5 22:58:09 10° WNW 23:01:39 33° N 23:04:36 13° ENE visible
26 Apr 3.3 00:36:32 10° WNW 00:39:00 36° NW 00:39:00 36° NW visible
26 Apr 3.4 22:33:22 10° WNW 22:36:52 33° N 22:40:21 10° ENE visible
27 Apr 2.6 00:11:46 10° WNW 00:15:01 54° NNW 00:15:01 54° NNW visible
27 Apr 3.4 22:08:34 10° WNW 22:12:04 32° N 22:15:33 10° ENE visible
27 Apr 2.2 23:46:59 10° WNW 23:50:47 60° NNE 23:51:01 59° NE visible
28 Apr 3.4 21:43:45 10° WNW 21:47:14 32° N 21:50:43 10° ENE visible
28 Apr 2.3 23:22:11 10° WNW 23:25:58 58° NNE 23:27:00 41° E visible
